Probability
0 0 0 0 0 0 0 0 0 0 0 0 0 0 0 0 0 0 0 3 12 22 28 29 31 30 28 26 25 25 23 18 13 11 9 7 6 8 13 22 35 45 51
0 0 0 0 0 0 0 0 0 0 0 0 0 0 0 0 0 0 0 2 10 23 37 46 51 51 48 45 42 40 38 32 26 21 16 11 8 9 13 19 25 32 36
0 0 0 0 0 0 0 0 0 0 0 0 0 0 0 0 0 0 0 1 4 15 35 56 68 73 71 67 63 59 57 55 48 39 29 22 17 16 17 18 18 18 17
0 0 0 0 0 0 0 0 0 0 0 0 0 0 0 0 0 0 0 0 0 4 17 37 55 68 74 75 71 67 69 71 67 58 48 40 34 30 27 21 16 11 8
0 0 0 0 0 0 0 0 0 0 0 0 0 0 0 0 0 0 0 0 0 0 3 11 25 42 57 67 67 63 66 70 70 67 61 54 48 41 32 24 16 9 5
0 0 0 0 0 0 0 0 0 0 0 0 0 0 0 0 0 0 0 0 0 0 0 1 6 15 30 44 51 49 48 50 54 56 55 51 50 44 33 23 14 7 2
0 0 0 0 0 0 0 0 0 0 0 0 0 0 0 0 0 0 0 0 0 0 0 0 0 3 9 19 28 30 29 30 33 36 38 39 41 38 28 18 9 3 1
0 0 0 0 0 0 0 0 0 0 0 0 0 0 0 0 0 0 0 0 0 0 0 0 0 0 2 4 9 15 22 24 25 28 31 33 32 28 21 11 4 1 0
0 0 0 0 0 0 0 0 0 0 0 0 0 0 0 0 0 0 0 0 0 0 0 0 0 0 0 0 2 7 15 20 24 29 36 40 38 31 18 7 1 0 0
0 0 0 0 0 0 0 0 0 0 0 0 0 0 0 0 0 0 0 0 0 0 0 0 0 0 0 0 1 3 6 11 16 23 33 40 42 36 22 9 2 0 0
0 0 0 0 0 0 0 0 0 0 0 0 0 0 0 0 0 0 0 0 0 0 0 0 0 0 0 0 0 1 2 3 6 11 18 24 26 27 23 13 4 1 0
0 0 0 0 0 0 0 0 0 0 0 0 0 0 0 0 0 0 0 0 0 0 0 0 0 0 0 0 0 0 1 2 2 4 7 9 10 12 13 11 5 2 1
0 0 0 0 0 0 0 0 0 0 0 0 0 0 0 0 0 0 0 0 0 0 0 0 0 0 0 0 0 0 1 1 0 1 2 4 4 4 5 5 3 1 0
0 0 0 0 0 0 0 0 0 0 0 0 0 0 0 0 0 0 0 0 0 0 0 0 0 0 0 0 0 0 0 0 0 0 0 1 1 2 2 2 1 0 0
0 0 0 0 0 0 0 0 0 0 0 0 0 0 0 0 0 0 0 0 0 0 0 0 0 0 0 0 0 0 0 0 0 0 0 0 0 1 1 1 0 0 0
0 0 0 0 0 0 0 0 0 0 0 0 0 0 0 0 0 0 0 0 0 0 0 0 0 0 0 0 0 0 0 0 0 0 0 0 0 0 0 0 0 0 0
0 0 0 0 0 0 0 0 0 0 0 0 0 0 0 0 0 0 0 0 0 0 0 0 0 0 0 0 0 0 0 0 0 0 0 0 0 0 0 0 0 0 0
0 0 0 0 0 0 0 0 0 0 0 0 0 0 0 0 0 0 0 0 0 0 0 0 0 0 0 0 0 0 0 0 0 0 0 0 0 0 0 0 0 0 0
0 0 0 0 0 0 0 0 0 0 0 0 0 0 0 0 0 0 0 0 0 0 0 0 0 0 0 0 0 0 0 0 0 0 0 0 0 0 0 0 0 0 0
0 0 0 0 0 0 0 0 0 0 0 0 0 0 0 0 0 0 0 0 0 0 0 0 0 0 0 0 0 0 0 0 0 0 0 0 0 0 0 0 0 0 0
0 0 0 0 0 0 0 0 0 0 0 0 0 0 0 0 0 0 0 0 0 0 0 0 0 0 0 0 0 0 0 0 0 0 0 0 0 0 0 0 0 0 0
0 0 0 0 0 0 0 0 0 0 0 0 0 0 0 0 0 0 0 0 0 0 0 0 0 0 0 0 0 0 0 0 0 0 0 0 0 0 0 0 0 0 0
0 0 0 0 0 0 0 0 0 0 0 0 0 0 0 0 0 0 0 0 0 0 0 0 0 0 0 0 0 0 0 0 0 0 0 0 0 0 0 0 0 0 0
0 0 0 0 0 0 0 0 0 0 0 0 0 0 0 0 0 0 0 0 0 0 0 0 0 0 0 0 0 0 0 0 0 0 0 0 0 0 0 0 0 0 0
0 0 0 0 0 0 0 0 0 0 0 0 0 0 0 0 0 0 0 0 0 0 0 0 0 0 0 0 0 0 0 0 0 0 0 0 0 0 0 0 0 0 0
0 0 0 0 0 0 0 0 0 0 0 0 0 0 0 0 0 0 0 0 0 0 0 0 0 0 0 0 0 0 0 0 0 0 0 0 0 0 0 0 0 0 0
Wind_Speed
4 4 3 3 3 3 3 3 3 4 4 5 4 4 4 4 3 3 3 9 11 12 13 14 14 14 14 13 13 13 12 12 11 10 8 7 6 6 6 7 7 8 8
3 3 2 2 2 3 3 3 3 3 2 2 3 4 4 4 4 4 3 5 9 11 13 15 16 16 16 16 15 15 15 15 14 13 11 9 8 7 6 6 7 8 8
3 2 1 1 1 1 1 0 1 1 2 2 3 4 4 4 5 5 4 3 4 9 13 15 16 17 17 17 18 18 18 17 17 15 14 12 10 8 7 6 7 7 8
4 3 3 3 3 2 2 2 3 3 3 3 3 4 3 4 5 6 5 5 4 5 8 14 15 17 18 19 20 20 20 19 18 17 15 14 12 10 8 7 7 6 7
6 5 4 3 4 3 3 4 3 2 3 4 4 4 3 4 5 7 6 7 6 6 5 10 15 16 16 18 20 21 21 20 19 18 17 16 14 11 10 9 8 7 7
6 5 4 4 4 3 3 3 3 2 2 3 5 5 4 5 4 5 6 6 6 8 7 7 7 9 15 16 17 19 21 21 20 20 21 19 16 13 12 11 10 8 8
6 5 4 3 3 3 3 3 2 3 3 3 3 5 4 4 4 4 4 5 7 8 7 7 6 5 6 12 12 15 18 19 20 20 21 21 19 16 15 13 12 10 9
7 7 6 5 5 4 6 6 5 3 3 4 3 4 6 5 3 4 5 6 7 6 7 9 7 6 5 4 7 13 14 15 19 21 22 22 23 20 17 15 14 13 11
8 8 8 6 6 6 5 5 4 4 3 3 2 2 3 5 5 3 4 5 5 5 6 7 6 6 6 4 4 7 11 12 12 15 18 19 19 20 20 18 17 15 13
7 7 7 6 5 4 4 4 4 2 2 3 2 2 4 4 6 6 3 3 6 7 7 8 7 6 4 3 5 8 10 10 12 12 13 12 12 14 18 19 19 17 15
6 6 5 4 4 3 3 3 3 3 2 2 2 3 4 4 5 6 7 4 4 5 6 7 6 5 5 4 4 6 10 10 10 11 11 11 11 11 13 16 18 18 17
4 5 4 3 3 2 3 3 3 4 3 4 3 3 3 4 4 5 7 7 7 6 7 7 7 6 5 5 7 12 12 11 10 10 10 10 10 11 11 13 15 17 18
3 5 5 4 4 4 4 3 3 4 4 4 4 4 4 5 5 5 7 8 8 6 6 7 6 5 6 4 5 12 11 12 11 10 10 10 10 11 11 12 14 16 18
3 4 5 5 5 5 5 4 3 4 4 5 6 6 5 6 5 5 6 7 9 6 5 7 4 5 5 4 7 11 6 11 12 11 10 10 10 10 11 12 14 15 17
3 5 5 5 5 5 4 4 3 4 5 4 6 7 6 6 6 6 6 6 8 9 7 5 4 5 4 4 8 5 5 11 14 12 10 8 8 9 11 12 14 15 17
4 5 5 5 4 4 4 4 3 4 5 5 6 7 7 6 6 6 6 6 7 9 8 4 5 6 7 8 11 6 6 14 13 9 7 6 6 8 11 14 16 18 19
5 5 5 4 2 3 3 3 4 5 7 8 8 8 10 9 7 6 6 6 7 7 10 6 5 6 6 7 8 6 5 4 2 1 1 3 5 9 12 16 19 21 23
5 4 4 2 1 2 2 2 5 6 7 9 10 10 11 9 9 8 7 7 7 7 8 10 7 5 6 7 7 6 3 1 1 3 5 6 9 12 16 19 22 24 26
5 4 3 1 2 2 0 2 4 6 7 9 10 10 11 10 10 8 7 7 6 6 6 8 9 6 5 5 5 2 2 2 2 4 6 8 12 16 19 22 25 28 28
4 4 2 1 2 2 1 4 5 7 8 9 9 10 10 10 10 8 7 6 6 7 7 8 9 7 6 4 3 2 2 2 2 3 5 8 12 17 21 26 29 29 28
4 3 2 1 3 2 2 5 6 8 9 10 10 10 10 14 14 10 9 8 8 8 8 9 9 7 6 4 3 2 3 2 1 2 3 5 8 9 14 22 25 21 19
4 3 2 2 3 2 4 9 10 7 8 9 10 11 12 12 13 16 18 18 17 14 12 10 8 8 6 3 3 4 4 2 1 3 3 5 8 10 13 14 17 8 4
4 4 4 3 3 4 5 9 15 9 8 9 10 10 11 11 13 10 16 20 19 21 20 14 10 9 5 4 5 5 3 3 2 3 3 5 7 9 12 17 23 18 19
4 3 3 3 2 3 6 9 17 9 8 9 10 11 11 11 11 13 14 14 14 13 13 9 7 6 4 5 6 6 8 7 4 4 4 4 6 7 11 14 29 30 29
3 3 2 2 2 4 8 11 16 7 8 10 11 11 12 11 15 19 15 13 13 9 7 1 4 7 10 13 12 9 7 6 4 4 4 3 4 6 9 13 20 34 36
2 4 5 4 4 5 9 13 17 7 8 10 11 11 14 14 18 19 13 11 10 6 3 7 11 14 12 13 11 6 5 5 4 3 3 3 4 4 6 10 13 14 20
Wind_Direction
183 193 213 223 243 242 233 243 259 268 269 274 283 293 301 307 305 289 273 247 233 232 235 237 236 236 236 234 233 233 234 234 233 234 236 243 256 272 290 304 311 308 296
163 179 211 233 260 258 240 231 245 256 272 295 323 336 333 334 327 321 303 289 270 260 255 253 252 248 247 243 237 235 235 234 233 230 229 231 238 249 268 287 303 313 315
117 120 109 116 290 297 291 304 329 2 5 2 349 338 334 331 325 324 319 309 303 294 284 276 272 269 264 257 249 243 239 236 234 231 230 229 230 234 245 264 285 301 311
68 66 52 35 19 27 25 26 19 14 11 358 334 320 325 326 326 322 323 317 303 298 300 295 289 283 274 267 262 256 248 242 239 237 234 232 230 229 231 240 258 276 295
54 58 52 33 30 36 30 20 21 10 354 343 323 314 325 322 316 320 320 313 310 302 295 301 307 307 297 283 275 271 265 257 249 246 244 240 235 228 225 228 236 250 270
43 46 42 29 31 34 20 15 7 5 348 331 326 323 312 309 313 318 315 315 312 312 316 314 312 312 314 309 297 286 278 270 261 256 253 248 238 227 222 222 223 231 248
25 30 19 10 18 26 16 10 6 4 359 353 350 326 305 290 297 302 313 322 319 319 319 312 308 307 313 318 315 299 287 278 268 260 257 254 245 230 221 219 218 221 232
20 22 18 15 14 17 19 18 22 10 357 14 5 326 316 318 309 322 328 314 313 316 315 319 317 319 319 316 321 325 318 304 282 267 257 251 243 234 226 221 220 223 228
27 31 34 33 28 33 24 13 29 22 341 338 359 299 301 293 312 273 286 293 304 313 315 313 316 324 329 336 329 341 346 345 326 298 277 264 251 241 236 232 232 232 234
26 37 40 36 30 29 21 0 22 351 338 320 308 260 256 273 291 299 291 292 306 303 300 304 308 307 313 305 303 322 333 338 335 331 324 305 280 258 245 242 243 242 244
17 24 35 28 21 13 360 348 345 332 308 287 283 279 278 278 261 282 295 289 285 276 278 281 284 286 285 278 272 292 319 324 329 323 314 309 301 281 263 252 250 252 253
356 1 8 7 352 336 324 316 310 307 294 290 282 270 266 268 275 277 287 294 287 279 277 277 274 273 271 270 283 307 308 309 311 308 300 294 290 283 275 266 260 259 260
333 331 341 331 324 316 308 302 301 301 296 295 285 277 269 265 266 272 283 290 286 281 272 270 264 262 272 263 278 298 301 301 298 290 282 277 273 271 270 269 267 265 264
295 303 313 314 313 311 318 319 317 316 320 308 303 295 285 277 269 264 268 283 290 283 265 267 274 261 265 263 266 284 279 287 289 279 267 262 263 266 268 268 267 267 266
308 320 315 313 314 321 330 342 346 340 334 318 302 293 285 277 273 267 262 262 276 289 287 272 273 268 262 265 274 269 259 278 285 274 252 244 254 266 271 273 271 268 266
308 314 316 318 330 355 16 26 3 345 333 310 298 293 288 282 279 272 266 260 257 270 278 260 262 272 280 284 286 279 267 285 284 262 237 240 262 273 278 278 276 272 267
309 313 314 323 3 42 41 30 354 334 317 305 301 299 292 286 280 275 270 265 262 261 274 276 263 273 273 273 280 273 271 270 266 227 307 309 302 296 291 286 281 275 269
311 311 316 333 77 87 53 9 331 321 308 308 306 301 296 294 285 280 273 268 264 258 267 279 280 276 266 267 267 272 282 236 85 44 15 341 319 309 300 291 283 276 268
320 325 330 335 142 147 326 315 306 303 302 302 302 299 296 295 291 286 279 275 271 272 263 274 280 273 267 265 264 258 80 54 53 26 1 341 325 314 304 296 288 278 265
322 324 326 220 178 195 277 309 307 302 304 305 302 298 296 294 291 292 293 286 285 282 275 272 273 273 268 259 230 180 122 67 36 10 354 338 325 320 312 304 293 280 262
322 315 311 241 216 220 291 321 311 318 312 310 307 303 303 306 312 316 314 303 294 284 277 271 268 267 261 244 212 159 135 129 57 0 327 333 326 320 317 310 304 285 258
309 305 284 254 253 254 302 322 331 316 310 308 308 309 307 304 315 319 315 309 298 287 279 269 263 256 253 227 166 146 145 162 67 355 343 343 341 335 330 326 330 334 141
295 295 279 264 262 270 291 315 333 332 308 303 303 307 310 310 314 309 310 307 298 288 278 267 255 247 233 193 152 137 112 91 62 345 341 359 348 347 342 352 18 55 84
281 285 289 288 281 289 309 324 334 329 304 303 304 303 302 305 307 312 310 302 297 294 285 265 238 228 198 147 129 121 116 102 76 32 19 21 354 354 356 10 33 56 74
299 319 332 350 336 316 325 332 340 319 314 312 309 308 307 305 307 314 311 304 304 306 319 357 128 120 118 118 122 120 121 115 87 34 10 28 351 350 10 23 33 52 65
11 23 22 11 350 326 329 337 341 324 320 318 313 311 311 309 312 314 310 304 304 319 17 80 89 92 96 96 93 96 112 113 106 85 4 13 350 345 23 26 33 41 56